Location: Buffign�court
(47.8126°N, 6.0176°E)
Time: 02:33:42
(UTC+00:00)

USA 267 - Pass Details

Date: 16 June 2021
Orbit: 1102 x 1106 km, 123.0° (Epoch: 24 July)

Event Time Altitude Azimuth Distance (km) Brightness Sun altitude
Rises 20:27:56 0° 84° (E) 3,920 5.8 -7.2°
Reaches altitude 10° 20:30:32 10° 78° (ENE) 2,964 5.2 -7.5°
Maximum altitude 20:36:36 43° 10° (N) 1,518 4.4 -8.1°
Drops below altitude 10° 20:42:41 10° 302° (WNW) 2,969 6.9 -8.8°
Sets 20:45:17 0° 296° (WNW) 3,928 7.5 -9.1°
